Powrót do katalogu

STARLINK-32367

AktywnyŁącznośćVLEO
NORAD 60919·PAYLOAD·🇺🇸 United States

Wystrzelony Aug 31, 2024 z Cape Canaveral Space Force Station

Loading…

Następne Przeloty (najbliższe 24 godziny)

TLE

ŚwieżeSource: CelesTrak SupGP

Epoka: Sep 14, 2026, 21:13 UTC

1 60919C 24154S   26257.88451389 -.00068869  00000+0 -20349-2 0  2574
2 60919  53.1583 123.6450 0001232  85.8847 195.2115 15.34423192    10

Śledź STARLINK-32367 w czasie rzeczywistym z AllMySat

Download on the App Store